www.pogodaiklimat.ru

Погода и климат >> Архив погоды >> Россия >> Ярославская область >> Рыбинск


АРХИВ ПОГОДЫ в Рыбинске

Время (UTC), дата Ветер
(напр.,м/с)
 
Видим.   Явления Облачность Т
(С)
Тd
(С)
f
(%)
Тe
(С)
Тes
(С)
Комфортность P
(гПа)
Po
(гПа)
Тmin
(С)
Tmax
(С)
R
(мм)
R24
(мм)
S
(см)
03 13.11 Ю 2 10 км 8/8 300 м
[Sc]
+0.8 -0.4 92 -3 -3 по сезону 1007.8 994.7 -0.3
06 13.11 Ю 1 10 км {ливн. осадки} 8/8 300 м
[Sc]
+0.9 -0.1 93 -1 -1 тепло 1009.5 996.4
09 13.11 Ю 2 10 км 8/8 300 м
[Sc]
+1.7 +0.4 91 -2 -2 по сезону 1011.2 998.1
12 13.11 Ю 1 12 км 6/6 300 м
[Sc]
+2.1 0.0 86 0 +1 тепло 1012.5 999.4
15 13.11 Ю 2 10 км 8/8 600 м
[Sc]
+1.5 +0.2 91 -2 -2 по сезону 1013.4 1000.3 +2.4 0.0
18 13.11 штиль 0 10 км 10/10 300 м
[Sc]
+1.8 -0.1 87 +1 +1 тепло 1013.5 1000.3
21 13.11 Ю 2 10 км 10/10 300 м
[Sc]
+1.0 -0.5 90 -3 -3 по сезону 1013.3 1000.1
00 14.11 Ю 2 4000 м слабый снег 10/10 300 м
[Frnb Ns]
+0.3 -0.8 92 -3 -3 по сезону 1012.7 999.5
03 14.11 ЮВ 2 4000 м снег 10/10 300 м
[Frnb Ns]
-0.2 -0.6 97 -4 -4 по сезону 1009.3 996.1 2
06 14.11 ЮВ 2 1800 м снег 10/10 300 м
[Frnb Ns]
+0.1 -0.4 96 -4 -4 по сезону 1005.8 992.7
09 14.11 штиль 0 1000 м сильный снег 10/10 300 м
[Frnb Ns]
+0.3 -0.1 97 -1 -1 по сезону 1003.9 990.8
12 14.11 СЗ 2 6000 м слабый снег 10/10 300 м
[Frnb Ns]
+0.4 -0.1 96 -3 -3 по сезону 1003.2 999.1
15 14.11 СЗ 3 4000 м слабый снег 10/10 300 м
[Frnb Ns]
+0.6 -0.1 95 -4 -4 по сезону 1005.6 992.5 +0.6 9
18 14.11 З 2 10 км {снег} 8/8 300 м
[Cu med, cong]
+1.0 -0.5 90 -3 -3 по сезону 1008.6 995.5
21 14.11 З 3 10 км 10/10 300 м
[Sc]
+0.9 -0.6 90 -4 -4 по сезону 1011.1 998.0
00 15.11 ЮЗ 1 10 км 8/8 300 м
[Sc]
+0.9 -0.5 90 -1 -1 тепло 1013.1 999.8
03 15.11 ЮЗ 1 10 км 10/10 300 м
[Sc]
+0.6 -1.1 88 -1 -1 тепло 1014.2 1000.9 +0.6
06 15.11 З 1 10 км 10/10 300 м
[Sc]
+0.8 -0.4 92 -1 -1 тепло 1014.9 1001.7
09 15.11 штиль 0 11 км 10/10 300 м
[Sc]
+1.2 -0.4 89 0 0 тепло 1015.9 1002.7
12 15.11 штиль 0 12 км 9/9 300 м
[Sc]
+1.2 -0.6 88 0 0 тепло 1016.0 1002.8
15 15.11 Ю 1 10 км 10/10 300 м
[Sc]
+0.6 -0.7 91 -1 -1 тепло 1015.7 1002.5 +1.7
18 15.11 Ю 1 10 км 10/10 300 м
[Sc]
+0.6 -0.4 93 -1 -1 тепло 1014.7 1001.5
21 15.11 Ю 1 10 км {снег} 10/10 300 м
[Sc]
+0.8 -0.2 93 -1 -1 тепло 1014.0 1000.8
00 16.11 Ю 1 4000 м слабый снег 10/0
[As op]
+0.8 -0.2 93 -1 -1 тепло 1012.6 999.5
03 16.11 штиль 0 10 км {снег} 10/0
[As op]
+0.9 0.0 94 -0 -0 тепло 1011.4 998.2 +0.4 0.3 4
06 16.11 Ю 1 11 км {снег} 10/10 300 м
[Sc]
+1.0 -0.2 92 -1 -1 тепло 1010.7 997.5
09 16.11 ЮЗ 1 9000 м слабый снег 10/0 2000 м
[As op]
+1.6 +0.3 91 -0 -0 тепло 1010.4 997.3
12 16.11 З 2 12 км {снег} 9/9 300 м
[Sc]
+2.0 +0.5 90 -1 -1 тепло 1011.2 998.0
15 16.11 З 3 10 км 9/9 300 м
[Sc]
+1.6 -1.3 81 -3 -3 по сезону 1012.3 999.2 +2.0 0.3
18 16.11 З 2 4000 м слабый снег 10/10 300 м
[Frnb Ns]
+1.0 0.0 93 -3 -3 по сезону 1013.3 1000.0
21 16.11 СЗ 2 10 км {снег} 10/10 300 м
[Sc]
+1.3 +0.4 94 -2 -2 по сезону 1015.0 1001.8
00 17.11 З 2 10 км {снег} 9/9 300 м
[Sc]
+1.0 -0.1 92 -3 -3 по сезону 1016.6 1003.3
03 17.11 З 1 10 км 10/10 300 м
[Sc]
+0.5 -0.5 93 -2 -2 тепло 1017.9 1004.6 +0.3 1 4
06 17.11 З 1 10 км 9/9 300 м
[Sc]
+0.6 -0.3 94 -1 -1 тепло 1017.7 1004.5
09 17.11 ЮЗ 1 10 км 10/10 300 м
[Sc]
+1.7 +0.2 90 -0 -0 тепло 1017.1 1004.0
12 17.11 З 2 10 км 10/10 300 м
[Sc]
+1.6 -0.9 83 -2 -2 по сезону 1016.2 1003.1
15 17.11 Ю 1 10 км 10/10 300 м
[Sc]
+0.8 -1.9 82 -1 -1 тепло 1014.9 1001.7 +2.0
18 17.11 Ю 1 10 км 10/10 300 м
[Sc]
+1.1 -1.3 84 -1 -1 тепло 1012.5 999.3
21 17.11 З 1 4000 м слабый снег 10/0 2000 м
[As op]
+1.1 -0.2 91 -1 -1 тепло 1011.1 998.0
00 18.11 ЮЗ 2 10 км {снег} 10/10 300 м
[Sc]
+1.7 +0.7 93 -2 -2 тепло 1011.2 998.1
03 18.11 ЮЗ 1 10 км 10/10 300 м
[Sc]
+2.0 +0.8 92 0 0 тепло 1011.8 998.7 +0.7 1 2
06 18.11 ЮЗ 1 13 км 10/10 300 м
[Sc]
+2.2 +0.3 87 +1 +1 тепло 1012.4 999.3
09 18.11 ЮЗ 1 13 км 10/10 300 м
[Sc]
+2.9 -0.4 79 +1 +1 тепло 1012.9 999.9
12 18.11 штиль 0 14 км 9/9 300 м
[Sc]
+2.7 -0.8 78 +2 +2 тепло 1013.0 999.9
15 18.11 штиль 0 10 км 10/10 300 м
[Sc]
+2.0 -1.8 76 +1 +1 тепло 1013.3 1000.2 +3.0
18 18.11 ЮЗ 1 10 км 10/10 300 м
[Sc]
+1.5 -1.8 79 -0 -0 тепло 1013.1 1000.0
21 18.11 штиль 0 10 км 10/10 300 м
[Sc]
+1.4 -3.3 71 +1 +1 тепло 1013.3 1000.2
00 19.11 Ю 1 10 км 10/10 300 м
[Sc]
+0.8 -3.6 72 -1 -1 тепло 1012.7 999.4
03 19.11 Ю 2 10 км 6/0
[Ci fib]
-1.3 -4.0 82 -5 -5 по сезону 1011.9 998.7 -1.4
06 19.11 ЮВ 1 11 км 10/10 300 м
[Sc]
-0.5 -3.0 83 -2 -2 тепло 1011.7 998.5
09 19.11 ЮВ 2 1800 м снег 10/10 300 м
[Frnb Ns]
+0.4 -0.5 94 -3 -3 по сезону 1010.7 997.6
12 19.11 ЮВ 2 8000 м дымка {снег} 10/10 300 м
[St]
+0.7 0.0 95 -3 -3 по сезону 1009.5 996.4
15 19.11 ЮВ 1 4000 м слабая морось {снег} 10/10 300 м
[St]
+0.5 -0.1 96 -2 -2 тепло 1009.1 996.0 +0.7 2
18 19.11 ЮВ 1 4000 м слабый снег {морось} 10/10 300 м
[Frnb Ns]
+0.3 -0.3 96 -2 -2 тепло 1008.1 995.0
21 19.11 ЮВ 1 4000 м слабый снег 10/10 300 м
[Frnb Ns]
+0.3 -0.3 96 -2 -2 тепло 1007.4 994.3
00 20.11 ЮВ 1 2000 м снег 10/10 300 м
[Frnb Ns]
+0.1 -0.3 97 -2 -2 тепло 1005.9 992.8

 

Местоположение метеостанции Рыбинск (Ярославская область, Россия): широта 58.10 долгота 38.68 высота над уровнем моря 105 м.

В архиве по умолчанию представлена погода в Рыбинске за последнюю неделю. Архивные данные за месяц целиком и за предыдущие месяцы, начиная с января 2011 года, Вы можете получить, выбрав интересующий диапазон дат из раскрывающегося списка и нажав кнопку "Ввод!".

Внимание! Время в таблицах - всемирное. Для получения местного времени необходимо прибавить поправку, которая в Рыбинске равна 3 ч.

Смотрите также архив погоды в соседних городах и на ближайших метеорологических станциях:

Погода в Пошехонье (Ярославская область, Россия) (50 км)
Погода в Брейтово (Ярославская область, Россия) (53 км)
Погода в Тутаеве (Ярославская область, Россия) (55 км)
Погода в Угличе (Ярославская область, Россия) (70 км)
Погода в Данилове (Ярославская область, Россия) (89 км)
Погода в Ярославле (Ярославская область, Россия) (89 км)
Погода в Красном Холме (Тверская область, Россия) (93 км)
Погода в Кашине (Тверская область, Россия) (108 км)
Погода в Ростове Великом (Ярославская область, Россия) (109 км)
Погода в Бежецке (Тверская область, Россия) (123 км)

Пояснения к столбцам:

Ветер - указаны скорость ветра в м/с - средняя за 10 мин, порывы в срок и между сроками (в фигурных скобках) и направление, откуда дует ветер: С - северный, СВ - северо-восточный, В - восточный, ЮВ - юго-восточный, Ю - южный, ЮЗ - юго-западный, З - западный, СЗ - северо-западный.
Видимость - горизонтальная дальность видимости в метрах или километрах. При видимости от 1 до 10 км при отсутствии осадков обычно наблюдается дымка, при ухудшении видимости до 1 км и менее - туман. В сухую погоду видимость может ухудшаться дымом, пылью или мглою.
Явления - указаны атмосферные явления, наблюдавшиеся в срок или в последний час перед сроком; фигурными скобками обозначены явления, наблюдавшиеся между сроками (за 1-3 часа до срока); квадратными скобками обозначены град или гололедные отложения с указанием их диаметра в мм.
Облачность - указаны через наклонную черту общая и нижняя облачность в баллах и высота нижней границы облаков в метрах; квадратными скобками обозначены формы облаков: Ci - перистые, Cs - перисто-слоистые, Cc - перисто-кучевые, Ac - высококучевые, As - высокослоистые, Sc - слоисто-кучевые, Ns - слоисто-дождевые, Cu - кучевые, Cb - кучево-дождевые. Подробнее классификацию облаков см. в Атласе облаков (PDF).
T - Температура воздуха - температура, измеренная на высоте 2 м над землей.
Td - Температура точки росы - температура, при понижении до которой содержащийся в воздухе водяной пар достигнет насыщения.
f - Относительная влажность воздуха - влажноcть воздуха, измеренная на высоте 2 м над землей.
Te - Эффективная температура - температура, которую ощущает одетый по сезону человек в тени. Характеристика душности погоды. При расчете учитывается влияние влажности воздуха и скорости ветра на теплоощущения человека.
Tes - Эффективная температура на солнце - температура, которую ощущает человек, с поправкой на солнечный нагрев. Характеристика знойности погоды. Зависит от высоты солнца над горизонтом, облачности и скорости ветра. Ночью, в пасмурную погоду, а также при ветре 12 м/с и более поправка равна нулю.
P - Атмосферное давление - приведенное к уровню моря атмосферное давление.
Po - Атмосферное давление - измеренное на уровне метеостанции атмосферное давление.
Tmin - Минимальная температура - минимум температуры воздуха на высоте 2 м над землей.
Tmax - Максимальная температура - максимум температуры воздуха на высоте 2 м над землей.
R - Количество осадков - Количество выпавших осадков за период времени, мм. При наведении курсора мыши на число - период времени, за который выпало указанное количество осадков.
R24 - Количество осадков - Количество выпавших осадков за 24 часа, мм.
S - Снежный покров - Высота снежного покрова, см. При наведении курсора мыши на число - состояние снежного покрова и степень покрытия местности в баллах.